User: anonymous   Login
Location: Unspecified
(36.3310°N, 0.0000°E)
Time: 00:48:40
(UTC+00:00)
Language:

Milstar 3 Cent rocket - Orbit

View from above orbital plane
View from above orbital plane
View from above satellite
View from above satellite

Ground track
Ground track

The orbit is defined by the following mean orbital elements,

1 25725U          26087.99371378 +.00000000 +00000-0 +36452-3 0 00007
2 25725  28.3183 322.0892 2385214 121.1415 264.4809  9.67478917    05
Epoch (UTC): 28 March 2026 23:50:56
Eccentricity: 0.2385214
inclination: 28.3183°
perigee height: 706 km
apogee height: 5144 km
right ascension of ascending node: 322.0892°
argument of perigee: 121.1415°
revolutions per day: 9.67478917
mean anomaly at epoch: 264.4809°

The dashed part of the orbit path shows where the satellite is in the earth's shadow,  

DLR